Theta_e
306 307 307 307 307 306 307 308 308 308 308 302 299 300 292 290 286 301 303 303 301 293 285 287 285 284 287 292 289 292 291 289 291 292 294 287 291 290 291 291 289 292 292 293 292 293 289 292 290 291 292 294 297 301 301 302 300 299 295 298 298 297 287 286 287 292 292 293 296 296 295 297 293 293 294 293 289 290 287 283 286 283 283 283 283 281 285
305 307 307 306 306 306 307 308 308 307 306 302 301 296 292 291 292 294 301 302 298 289 280 280 283 285 285 289 287 292 291 291 289 289 292 290 287 287 289 292 295 292 295 294 291 294 285 292 292 290 294 292 298 300 301 302 298 297 295 293 298 288 288 290 285 283 285 287 289 289 289 293 291 290 292 293 293 292 289 285 284 282 285 285 283 278 284
305 306 307 306 306 307 307 308 308 307 307 305 300 293 294 293 295 292 296 301 297 286 287 285 284 284 283 285 284 286 287 292 293 291 290 293 291 289 289 293 294 293 295 292 294 295 292 287 294 293 293 292 298 300 301 302 298 301 301 298 300 289 289 288 282 278 277 277 278 281 285 287 291 292 292 293 292 291 289 284 285 281 286 287 282 282 290
304 306 306 306 306 307 307 307 307 307 307 306 302 297 293 288 282 284 287 293 293 290 290 290 287 285 285 284 285 287 285 289 292 294 292 293 293 292 293 294 295 292 292 289 290 289 293 290 287 288 287 290 291 298 301 300 300 299 299 299 297 287 289 287 286 285 283 285 287 291 292 289 285 289 291 291 292 293 291 287 285 282 285 284 285 287 288
303 304 306 305 305 307 307 307 307 307 307 307 302 298 294 292 285 282 281 286 288 287 289 288 288 285 289 283 286 284 286 288 288 293 288 292 290 292 291 290 289 288 289 287 287 290 289 290 288 289 289 290 292 298 300 301 299 297 297 299 293 285 285 288 288 289 289 290 289 291 292 288 289 289 289 292 291 291 289 286 284 290 285 281 288 290 287
303 303 305 306 306 306 308 308 307 307 307 307 301 290 293 284 285 286 289 285 282 283 283 289 288 289 289 285 288 285 285 286 284 289 293 294 294 288 289 290 290 291 289 289 285 286 286 289 286 289 288 290 293 293 297 296 297 297 297 299 293 286 284 289 289 287 289 291 290 290 291 291 290 290 290 290 291 290 287 288 290 290 285 283 290 290 288
302 302 304 305 306 307 307 307 307 307 306 305 301 289 290 290 287 287 291 285 287 287 288 290 289 288 288 287 288 286 286 285 288 287 287 291 290 292 284 287 290 291 292 290 286 287 284 283 289 285 287 289 291 288 292 295 297 294 292 295 293 289 283 287 289 287 289 290 291 290 287 289 290 290 290 291 291 291 291 290 291 291 289 290 290 290 290
302 302 303 304 305 304 306 306 306 306 304 305 297 294 288 286 287 284 291 291 288 289 289 289 289 286 289 285 287 287 286 285 288 289 288 285 288 293 289 289 291 291 292 291 287 289 290 289 286 290 290 289 291 290 290 289 295 296 292 292 291 290 283 290 287 284 284 288 289 290 289 288 285 288 289 290 290 291 290 289 291 292 291 292 291 289 289
301 302 302 303 304 305 305 305 305 303 304 297 295 293 295 296 297 295 289 286 287 289 288 288 287 285 287 286 287 288 288 287 290 289 292 289 288 290 289 291 291 292 292 291 290 292 292 292 292 292 293 289 294 290 289 295 290 292 290 290 288 289 284 289 286 282 282 286 287 289 289 287 285 285 287 287 286 283 287 286 289 289 287 289 288 287 288
301 301 302 302 303 304 304 304 304 303 305 300 298 293 297 298 298 300 293 286 290 287 289 289 287 284 287 288 288 288 288 291 291 286 290 292 293 293 293 292 292 290 290 290 292 294 293 295 295 295 295 296 292 290 294 296 292 290 290 292 286 286 283 282 283 280 278 283 286 285 284 282 280 283 287 289 289 289 289 290 290 291 291 287 284 286 293
300 301 301 301 302 303 303 303 302 302 302 298 296 293 296 295 293 295 294 286 287 288 287 287 286 288 290 290 288 291 291 291 291 286 285 292 292 295 295 293 291 289 290 293 297 298 297 297 295 296 296 295 294 293 295 293 295 294 291 288 286 289 286 283 285 279 278 281 283 283 281 276 277 289 292 291 288 289 287 287 288 290 291 289 291 291 291
299 300 300 301 301 302 303 302 302 301 299 298 300 296 295 293 297 294 290 285 285 289 287 285 286 288 289 290 291 290 290 290 290 292 287 289 293 295 295 293 293 286 293 297 298 298 298 298 297 296 295 295 294 294 295 293 291 293 294 290 287 286 284 282 282 279 276 279 281 278 274 276 286 289 292 293 292 291 289 289 289 290 290 290 289 289 289
299 299 299 300 301 301 302 302 301 300 299 298 297 286 292 291 296 294 292 287 285 286 285 286 290 290 291 291 290 290 291 292 292 292 292 291 291 293 293 292 292 293 297 297 298 296 291 288 289 289 289 291 291 291 291 291 292 292 293 292 288 284 283 282 282 281 281 277 277 270 272 281 287 288 290 292 292 291 289 286 289 290 289 290 289 291 292
299 299 300 300 300 301 301 302 301 301 300 297 293 291 291 293 294 291 289 287 285 287 288 288 289 288 288 289 289 288 290 289 291 292 289 291 290 289 292 295 295 297 297 297 294 292 287 287 283 284 282 284 283 283 285 288 289 290 291 291 289 288 285 282 278 281 274 275 276 275 281 281 282 282 285 288 285 284 285 281 285 290 291 291 290 291 292
299 299 299 299 300 300 301 301 301 301 300 298 293 291 290 290 292 295 292 291 286 286 287 285 287 288 289 288 289 287 287 287 287 285 287 290 288 288 291 294 297 297 297 293 288 288 286 284 280 279 280 279 276 277 282 281 285 287 288 288 290 286 284 281 280 277 280 275 273 274 273 271 278 285 288 291 291 291 289 283 281 289 290 292 291 291 291
298 298 298 299 299 299 300 300 301 300 300 298 295 292 291 291 291 294 294 290 287 282 284 283 287 291 288 288 289 287 286 286 286 286 285 285 286 291 294 296 296 298 295 292 289 286 285 281 279 279 277 278 278 277 274 280 278 281 286 288 290 289 287 282 282 278 278 276 272 271 270 275 281 283 288 290 291 290 288 282 279 286 289 290 289 288 289
297 298 298 299 299 299 299 300 300 300 300 298 294 293 290 292 290 292 293 287 287 282 283 284 284 290 288 286 287 286 287 285 287 284 283 284 286 288 290 295 297 297 294 290 287 285 282 280 281 280 279 279 276 275 280 277 276 277 283 285 283 284 283 283 279 276 276 275 273 272 274 277 280 285 286 288 291 292 285 271 274 286 287 290 290 289 289
297 297 298 298 298 298 299 299 300 300 300 299 295 291 289 292 293 292 293 288 284 283 285 284 285 288 287 287 287 287 289 287 286 287 286 285 286 287 287 289 288 291 294 287 285 283 281 280 279 279 277 281 281 281 274 279 276 277 278 281 280 281 281 281 278 276 278 279 274 276 277 284 285 285 286 288 292 287 276 272 278 286 289 291 292 290 290
296 297 297 297 298 298 298 298 299 299 299 299 296 295 291 292 293 296 294 288 287 282 284 287 287 285 285 286 288 289 289 289 288 285 284 284 286 287 287 287 292 286 289 285 285 283 281 279 283 280 278 278 280 275 278 276 275 278 281 279 279 281 281 280 277 277 277 276 273 274 277 283 287 285 289 288 286 274 275 282 288 290 289 288 289 288 287
295 296 296 297 297 297 298 298 298 299 299 298 295 289 291 293 293 293 292 285 285 282 284 283 284 284 285 288 288 288 288 288 288 287 285 283 287 290 288 285 287 287 287 287 282 284 281 278 280 280 278 278 278 280 275 275 279 279 276 281 280 281 278 278 278 277 276 274 274 272 271 279 290 289 286 287 281 281 284 286 286 287 288 288 287 287 287
295 295 296 296 297 297 297 297 297 298 298 298 296 291 289 292 292 293 295 291 286 283 282 286 286 283 285 283 284 286 289 288 288 287 286 287 291 290 281 282 286 285 284 285 280 281 280 279 279 277 280 281 279 277 275 274 274 279 280 281 279 284 277 277 280 281 275 275 273 275 280 286 290 289 283 285 288 288 289 288 285 286 285 286 287 286 287
295 295 295 296 297 297 297 296 296 297 298 297 295 292 287 289 291 292 291 291 285 282 283 284 286 285 286 287 287 288 287 286 286 288 290 287 290 289 287 288 287 286 286 285 283 282 283 283 283 278 275 278 281 277 275 274 274 276 278 281 276 285 281 281 277 282 280 278 281 284 285 289 291 292 291 291 290 290 289 290 288 286 285 285 288 288 287
294 295 295 296 296 296 296 296 296 296 296 296 293 287 285 287 288 292 292 285 286 287 287 286 288 288 288 289 289 290 291 289 289 289 286 291 287 287 287 287 286 291 287 288 283 283 283 283 280 282 280 280 279 277 276 278 276 278 278 283 281 284 287 283 284 282 285 285 285 287 285 285 287 291 291 292 291 289 287 289 287 284 284 287 289 288 288
294 294 294 295 295 295 296 296 296 296 295 295 293 287 286 287 287 289 289 288 285 282 284 285 285 280 280 281 285 288 288 287 288 288 289 289 288 284 285 288 290 285 285 289 290 286 285 284 284 284 279 281 283 279 277 276 277 279 278 279 280 282 285 282 280 281 282 278 287 286 286 285 286 292 290 288 288 288 287 288 289 286 285 285 285 287 286
294 294 294 294 294 295 295 295 296 296 294 294 292 290 289 286 287 287 286 284 284 285 279 280 279 282 284 287 287 286 286 288 289 289 291 290 290 288 286 288 289 288 287 288 288 288 287 283 282 281 277 282 284 278 281 278 277 281 278 280 279 279 284 282 283 280 281 281 283 284 285 286 287 288 288 288 287 286 286 287 286 286 285 285 286 285 284
293 293 294 294 294 294 294 295 295 296 295 293 293 287 285 285 287 288 288 287 287 285 280 277 278 284 287 285 282 284 288 288 289 290 291 291 292 292 289 289 289 290 288 287 288 287 285 284 283 283 280 281 285 280 279 281 279 283 282 281 285 282 286 279 282 281 283 283 283 284 285 286 286 284 285 288 288 286 285 285 285 284 285 284 284 283 284
293 293 293 294 294 293 294 294 295 296 295 292 290 288 287 287 288 285 282 279 282 280 279 275 278 281 284 280 284 286 288 288 289 290 291 292 293 293 292 290 288 286 286 283 284 283 283 283 282 280 282 280 281 280 280 280 280 279 278 281 284 283 280 282 281 277 280 281 282 283 281 281 282 282 284 284 284 285 284 283 284 283 282 280 280 281 282
293 293 293 293 293 293 293 293 294 295 295 292 290 285 284 286 287 288 286 283 279 279 278 276 277 279 283 281 284 285 286 288 288 288 288 289 291 292 291 289 288 286 284 284 279 281 282 279 280 279 277 278 280 279 279 279 278 277 278 281 284 283 282 283 280 281 280 284 286 287 287 283 284 286 285 283 283 283 282 280 280 279 279 279 279 280 279
292 292 292 293 293 293 292 293 294 295 295 291 285 284 285 286 288 289 289 287 282 281 280 280 280 278 274 277 283 282 283 286 286 286 286 286 287 288 288 288 286 285 285 284 283 281 282 281 281 280 280 281 280 278 278 275 275 277 281 283 285 285 287 287 286 286 285 285 284 284 286 284 284 283 282 282 283 282 280 280 280 279 279 279 279 279 279
292 292 292 292 293 293 292 292 293 294 294 286 284 283 281 283 286 287 289 288 281 280 279 276 272 273 278 278 276 279 281 283 284 284 284 283 283 284 284 284 284 285 284 283 284 280 281 280 279 279 279 280 281 280 276 276 276 281 283 285 287 286 285 287 286 285 284 283 282 284 286 285 284 282 281 282 282 282 282 281 280 279 279 279 278 278 278
292 292 292 292 292 292 292 291 292 293 291 285 284 277 276 273 281 288 290 287 284 280 279 277 273 277 274 278 277 277 278 281 281 281 282 282 282 283 283 284 283 285 283 283 282 281 282 279 281 281 282 283 283 278 276 275 274 277 281 284 286 287 286 283 279 280 281 281 282 283 283 282 281 281 280 280 281 281 281 280 280 281 280 278 277 277 278
291 292 292 292 292 291 292 291 291 291 287 285 282 280 280 281 284 288 290 288 283 281 277 274 273 274 274 275 277 277 278 280 281 283 282 283 281 283 284 284 282 284 285 282 283 281 280 282 281 281 280 285 284 278 277 276 277 279 281 281 280 280 280 278 278 277 277 278 281 281 280 280 280 279 279 280 280 281 280 278 276 276 277 275 275 276 276
291 291 292 291 291 291 291 291 291 289 284 288 292 291 290 290 291 291 289 283 280 276 278 276 271 274 272 273 277 277 280 282 281 282 278 283 278 282 281 284 283 283 288 282 279 278 281 279 282 279 281 284 280 279 276 276 279 278 278 277 277 278 277 277 276 276 275 275 278 281 279 278 278 279 279 280 279 278 276 275 274 273 273 273 273 273 273
291 291 291 291 291 290 290 290 291 289 288 283 278 280 282 290 290 291 287 279 278 277 278 273 268 269 270 277 273 277 281 279 278 281 276 281 280 281 280 281 282 279 281 279 281 277 280 280 278 279 281 278 282 277 274 278 280 276 277 276 277 278 277 275 274 273 273 273 275 276 277 278 279 279 279 278 275 275 274 273 271 270 269 271 271 273 273
290 291 290 290 290 290 289 288 283 283 278 279 279 280 285 291 291 290 281 278 275 274 273 273 275 268 267 269 269 273 277 278 276 279 277 278 281 279 281 277 280 276 277 283 278 278 278 277 281 277 274 280 276 274 277 278 278 279 276 274 271 275 277 275 272 270 271 272 273 275 276 277 277 277 276 275 273 272 271 270 270 269 269 270 271 270 271
290 290 290 290 290 288 284 284 281 279 276 275 277 286 290 291 290 284 277 275 278 274 273 271 273 270 270 265 266 270 279 273 276 276 278 280 277 281 278 278 274 277 280 277 275 279 275 282 278 272 279 274 273 275 274 274 274 272 271 268 267 268 269 269 268 268 269 271 272 274 273 273 273 273 273 272 271 269 268 268 269 269 267 268 268 269 268
290 290 289 288 285 280 277 276 282 278 277 281 285 290 290 289 281 281 280 280 281 279 273 272 270 267 268 270 271 272 276 269 274 272 276 275 275 278 277 276 272 278 275 274 274 272 276 282 276 273 274 273 275 270 268 267 269 270 267 266 265 265 266 266 266 266 267 270 271 269 269 269 270 270 270 269 268 267 266 266 267 266 265 265 266 266 265
289 288 282 278 276 271 271 275 277 282 288 287 287 281 276 278 272 274 274 272 275 280 274 273 268 270 268 268 268 276 274 269 273 270 271 274 274 271 278 275 275 278 268 272 272 278 275 275 273 272 272 273 268 266 264 264 264 263 263 263 263 263 263 264 264 265 267 268 268 266 264 265 265 265 265 265 265 264 265 266 266 265 265 265 265 264 264
287 281 279 277 275 271 273 274 284 288 284 284 280 273 271 271 269 266 268 271 272 271 274 271 268 269 269 268 269 278 274 271 269 270 268 275 271 267 274 268 276 275 270 270 269 277 268 272 272 271 270 269 267 264 262 263 262 262 262 262 262 262 262 262 262 262 264 264 263 262 262 262 263 263 263 263 263 264 264 263 263 263 262 262 262 262 261
278 275 273 272 272 274 281 283 286 282 280 274 270 269 263 268 267 264 270 265 267 269 271 267 270 267 266 267 268 269 277 271 268 269 269 271 278 268 272 268 272 271 265 266 269 275 268 266 269 267 267 270 267 259 259 261 260 260 260 260 261 260 261 260 260 262 261 261 261 261 262 262 262 261 261 261 261 260 260 260 260 260 260 260 261 261 260
276 275 274 273 274 277 278 280 279 275 270 266 265 263 262 261 265 264 266 264 264 264 269 269 270 268 269 267 269 267 274 273 271 270 270 267 277 274 267 262 275 267 266 264 272 270 270 265 266 265 268 263 258 259 258 259 259 259 259 259 258 259 259 259 259 259 259 259 260 260 259 259 258 257 258 258 258 258 258 258 258 258 258 258 258 259 261
278 277 277 279 278 278 276 275 271 268 265 265 261 257 259 259 264 265 267 263 263 265 266 268 267 267 265 267 266 271 269 271 272 274 270 266 276 269 266 266 267 261 260 268 269 268 269 263 263 264 265 258 259 257 257 257 258 257 258 258 258 257 257 257 257 257 258 257 257 257 257 256 256 256 256 256 255 255 256 256 256 257 257 258 259 259 260
284 282 280 275 275 270 269 266 266 265 260 257 257 256 257 257 261 261 263 267 266 264 265 268 269 272 270 268 268 270 269 276 272 270 267 265 275 272 267 265 263 258 264 267 265 267 263 263 262 265 260 259 258 256 256 257 257 257 257 258 257 257 257 256 255 255 256 255 255 255 255 254 253 254 255 255 255 254 255 256 257 257 257 258 259 260 260
280 279 272 268 266 264 268 259 266 264 260 258 256 254 255 255 260 262 260 263 264 263 264 263 266 266 264 265 265 270 271 272 277 270 268 270 267 265 265 261 261 267 268 262 264 260 261 264 265 263 261 258 256 255 256 256 256 256 256 256 256 256 255 255 255 255 254 255 254 254 253 253 253 254 253 253 254 253 254 254 256 257 257 258 258 259 260
273 267 264 262 261 263 262 258 263 259 256 257 264 259 258 256 260 261 262 263 263 263 264 264 264 262 262 264 265 267 271 266 274 264 261 267 261 267 262 261 266 265 261 260 261 261 263 262 261 256 258 257 258 258 257 257 257 257 256 255 254 254 254 253 253 253 253 252 253 253 252 253 253 252 253 253 253 253 253 254 255 256 256 256 257 258 258
265 264 261 259 259 259 258 255 256 257 261 264 262 262 262 263 263 263 261 261 263 262 263 263 263 264 262 263 263 263 262 265 264 264 268 267 262 260 266 267 264 258 260 261 258 259 259 261 263 261 259 259 259 258 257 256 253 253 254 251 251 252 250 253 250 252 253 253 253 253 253 253 252 252 252 253 253 253 253 254 255 255 256 257 257 257 257
265 265 263 260 257 257 259 257 258 261 261 263 261 260 261 260 259 261 260 259 262 262 261 260 264 266 262 263 263 263 263 263 261 265 265 260 260 265 271 263 258 259 255 254 256 258 261 262 261 259 256 257 254 253 251 250 249 249 251 250 250 249 251 252 250 252 252 252 252 252 252 252 253 253 252 252 253 253 254 254 254 255 256 256 257 257 256
263 264 263 259 258 259 257 259 260 259 259 260 258 258 258 258 260 261 258 259 260 262 262 262 263 264 262 263 264 262 261 263 259 261 265 264 268 262 262 263 261 262 259 256 256 260 262 261 259 259 257 254 253 252 251 251 249 248 248 249 248 248 248 248 248 249 249 249 249 250 251 250 250 251 251 252 253 254 254 253 254 254 254 255 254 254 254
265 262 261 258 259 260 260 261 259 262 260 256 258 258 258 259 261 261 258 259 260 261 259 261 263 264 259 262 260 261 258 263 258 259 263 261 260 259 259 257 258 257 262 262 261 264 261 261 258 255 254 252 251 252 253 251 250 249 250 249 248 249 248 248 248 249 248 249 249 249 250 251 251 252 252 252 252 254 253 253 254 254 254 254 254 254 255
263 262 260 258 259 260 259 260 260 260 259 257 258 258 259 260 261 260 260 260 261 262 264 268 269 263 259 260 255 256 256 261 259 264 262 259 258 258 259 254 256 256 257 263 262 259 259 258 255 253 253 253 253 253 251 251 251 252 249 248 248 247 248 248 248 248 248 249 249 250 250 251 252 252 252 253 254 254 254 254 254 254 254 252 253 254 255
263 262 262 265 264 262 261 259 261 259 261 261 260 261 261 261 262 260 261 261 261 262 263 261 261 258 258 256 255 254 256 261 259 259 259 258 262 259 257 256 258 259 260 261 260 261 261 259 259 257 254 252 253 252 252 250 249 250 249 247 247 247 246 246 247 248 249 249 249 252 252 252 253 253 253 251 251 252 253 254 255 252 251 254 253 254 253
261 261 261 261 259 260 263 263 262 262 263 263 263 263 263 261 262 260 262 264 262 262 260 259 258 256 255 254 257 259 261 259 258 258 256 258 261 257 257 261 261 260 262 260 259 259 258 258 257 257 256 256 255 251 249 247 247 247 246 247 246 247 247 247 248 249 249 250 250 250 252 253 253 253 253 252 252 250 252 254 254 253 253 254 254 254 253
Wind_Speed
36 23 13 7 5 6 15 23 24 27 33 16 12 9 8 10 3 8 18 20 20 14 10 9 7 8 6 7 2 1 5 6 5 8 8 4 6 3 7 13 7 3 6 9 7 12 9 18 14 10 11 11 7 12 16 19 20 16 11 9 4 6 3 6 4 5 4 6 6 6 7 6 9 7 5 8 10 12 9 1 0 6 3 4 3 6 8
37 26 11 8 5 9 16 26 33 33 25 15 12 11 8 7 5 7 16 19 16 13 14 13 13 8 2 9 4 2 1 7 9 8 10 9 3 3 2 8 9 11 6 8 13 14 5 9 11 8 6 5 4 13 19 25 14 15 13 14 13 6 4 10 8 5 4 3 3 2 3 3 6 11 12 9 7 6 2 3 0 2 7 7 8 9 7
36 31 11 10 2 12 22 27 31 30 22 16 12 9 7 6 3 3 9 16 14 14 9 11 13 11 8 11 9 7 4 3 6 14 11 7 5 4 4 4 10 6 9 10 7 4 1 5 6 3 5 2 1 5 17 23 15 10 10 5 10 1 7 14 11 12 12 12 10 12 13 15 6 1 5 7 9 12 9 8 5 7 6 9 4 6 11
36 34 17 9 6 13 17 26 24 17 21 20 9 7 8 6 7 0 2 6 7 2 4 5 12 11 10 12 11 11 6 2 3 8 13 6 4 1 2 1 6 8 12 7 9 3 4 2 4 6 2 2 1 2 14 15 10 9 13 12 13 2 3 3 5 10 8 6 4 4 8 5 3 7 11 13 13 10 8 3 6 11 8 9 6 7 6
35 34 23 6 6 11 21 23 21 18 19 11 6 5 3 2 4 4 6 3 7 6 1 5 8 9 11 9 8 13 13 5 1 3 7 11 5 1 1 5 8 4 11 5 3 3 3 5 4 2 5 2 1 4 6 6 8 8 5 5 5 3 4 12 9 7 4 4 4 10 17 16 16 15 14 12 13 14 11 12 11 11 7 9 8 11 8
34 32 30 8 7 12 17 23 22 23 19 10 7 4 3 5 1 2 1 3 12 8 6 9 10 7 12 5 9 14 14 6 5 4 5 9 9 5 2 4 7 15 16 13 9 8 3 6 7 5 2 4 3 6 4 4 0 7 2 1 5 5 7 6 10 6 4 1 9 13 13 13 13 15 14 15 14 13 14 13 12 7 9 12 10 9 11
33 33 32 24 3 11 17 22 20 21 12 5 2 4 2 2 3 3 2 1 8 18 17 17 13 14 15 6 11 12 16 17 11 3 4 5 8 8 5 7 8 8 8 9 5 10 8 3 5 4 6 10 9 5 5 2 2 4 3 3 0 3 3 4 5 5 5 3 6 5 8 7 11 12 12 12 13 14 14 13 13 12 10 10 10 6 12
34 32 30 28 22 3 12 15 10 11 11 5 1 1 2 3 5 4 2 2 7 9 9 12 14 12 16 9 12 11 16 17 11 5 3 7 7 5 7 15 11 10 11 11 12 14 13 15 13 8 14 7 7 7 2 7 5 5 6 3 3 4 4 8 2 2 3 2 2 3 5 2 3 5 5 6 6 6 6 5 7 11 13 12 11 11 13
33 33 31 30 26 24 13 11 5 9 7 3 1 1 1 1 2 3 7 6 7 9 11 11 13 10 11 10 12 11 16 16 15 8 2 8 9 9 12 13 13 11 14 11 12 11 7 8 11 14 17 15 8 8 2 8 11 6 2 2 2 2 1 5 4 7 4 4 7 7 3 4 4 3 2 1 4 8 10 11 11 11 12 10 9 11 13
32 31 31 28 27 25 21 18 15 11 8 1 1 0 1 1 1 1 5 3 11 12 11 10 10 13 11 11 12 11 17 11 14 5 2 1 4 9 11 14 13 11 13 16 12 9 6 8 7 9 3 5 5 3 12 13 13 7 5 3 4 5 3 4 6 5 3 4 7 4 3 1 4 6 7 10 11 11 10 10 9 13 12 11 11 15 17
32 31 30 29 27 26 24 22 18 15 5 2 1 1 2 1 3 4 1 5 6 9 11 11 13 6 12 12 12 9 11 12 13 15 5 3 2 3 9 13 11 10 11 4 4 10 9 10 7 5 7 7 5 6 10 8 8 10 12 6 5 9 7 6 5 6 5 6 7 5 5 11 10 9 18 18 17 17 16 13 14 13 12 11 10 8 3
32 31 31 30 28 26 25 22 19 17 8 2 2 2 2 3 1 3 5 9 8 9 11 10 11 4 13 13 13 12 12 14 12 4 5 6 4 4 9 7 9 6 2 4 12 14 14 13 13 12 10 7 7 6 8 8 2 1 2 5 7 7 4 4 3 3 3 5 7 4 11 11 6 6 6 12 15 14 15 15 15 14 12 10 9 7 7
32 32 31 30 28 27 24 22 19 15 12 3 1 4 2 2 1 2 1 4 8 10 11 8 6 7 10 11 10 8 10 7 6 8 4 7 6 7 2 6 8 4 6 10 15 15 11 9 9 8 6 7 6 7 3 6 1 2 1 4 7 7 7 3 1 3 2 5 5 4 7 4 4 5 6 9 11 13 10 11 11 10 9 8 10 12 12
30 30 30 30 29 27 25 23 21 16 13 7 4 4 1 2 1 1 0 4 5 2 4 5 8 9 10 12 10 10 11 9 6 7 5 3 5 3 3 1 5 12 8 13 14 13 8 5 6 4 2 3 2 2 2 6 7 3 1 1 3 8 5 3 3 3 5 5 5 6 4 7 5 5 7 11 9 5 9 10 11 10 7 8 10 11 12
29 29 30 30 29 27 26 24 21 17 11 7 5 5 4 4 2 2 1 1 7 3 2 9 9 14 13 9 14 10 9 7 10 3 2 1 5 0 2 2 7 8 5 10 4 3 3 4 5 6 3 6 6 6 1 2 1 5 6 2 1 5 9 4 5 3 5 3 3 1 2 6 16 8 4 7 6 6 3 2 5 3 7 11 13 11 9
28 29 29 29 29 28 26 24 22 19 15 5 4 5 5 4 3 2 1 2 8 8 1 5 5 11 10 7 10 16 11 8 7 5 4 5 2 4 4 4 3 2 3 4 3 5 4 6 8 10 8 9 2 5 2 3 0 5 6 3 4 4 3 2 10 2 6 4 5 4 6 13 1 4 6 6 9 9 6 5 9 7 13 5 3 6 9
28 28 28 28 28 27 26 25 22 20 15 9 1 3 5 6 3 0 3 3 4 2 3 6 6 2 10 7 5 6 7 10 11 9 6 5 3 4 2 2 3 3 4 7 4 4 4 3 3 3 3 3 5 6 4 3 4 1 2 4 4 4 3 4 5 5 3 5 4 7 5 8 3 3 5 6 9 11 8 2 8 8 2 9 12 11 10
27 28 28 28 28 28 27 25 24 21 18 9 5 5 4 6 1 3 2 3 6 2 2 6 4 6 8 5 8 1 3 5 5 7 7 2 3 4 3 1 4 5 1 7 3 5 6 5 10 8 7 2 2 5 7 6 6 7 8 9 5 4 1 3 8 5 4 5 4 2 6 5 5 6 4 7 8 8 7 11 7 1 3 3 2 3 4
27 27 27 28 28 28 28 27 24 23 21 15 2 2 5 8 9 3 4 2 3 5 3 3 3 4 2 3 3 3 2 3 7 10 8 7 3 3 4 1 1 3 1 5 4 4 7 4 1 2 4 3 2 6 3 6 5 2 8 8 3 5 3 2 3 7 10 6 2 6 7 6 8 6 9 5 8 3 12 4 2 7 5 4 4 4 2
26 27 27 27 28 27 28 27 26 24 22 18 7 5 2 6 6 4 2 5 4 6 3 6 6 5 6 2 7 8 8 6 2 10 12 10 3 8 6 4 2 2 5 4 6 3 5 8 6 3 3 4 4 2 2 1 3 7 5 5 6 8 7 8 8 2 2 2 4 1 8 2 16 13 8 6 8 7 4 3 3 3 6 5 3 4 2
26 26 26 27 27 27 27 27 27 25 23 21 8 1 5 8 9 9 5 8 8 8 3 4 3 7 5 8 9 6 3 8 7 10 3 4 10 10 12 11 10 4 7 6 9 8 3 5 5 3 2 5 3 2 5 2 1 4 3 6 3 6 5 5 7 5 7 7 7 9 4 5 3 13 9 6 8 2 3 3 3 0 4 6 5 1 1
25 25 26 25 26 26 26 25 26 25 24 22 14 2 6 7 6 6 8 10 8 5 4 1 1 5 6 7 6 6 6 6 1 2 5 8 6 3 1 7 9 4 2 3 3 1 1 2 2 2 2 2 3 4 3 4 4 2 2 2 2 10 7 3 6 4 6 9 11 8 6 9 4 2 1 11 4 3 2 5 4 6 2 3 7 6 3
24 24 25 25 24 25 25 25 24 24 24 21 12 7 5 6 7 8 3 12 5 5 2 1 1 2 1 5 7 5 3 2 6 3 4 6 6 4 1 7 5 0 1 1 2 2 4 4 3 3 2 3 8 4 2 6 3 4 7 5 1 2 8 2 4 5 5 6 6 3 1 1 3 4 4 4 1 1 4 5 4 3 5 6 8 6 5
23 24 24 24 24 24 24 24 23 21 23 21 11 4 5 5 7 6 5 5 3 5 3 4 1 4 5 7 8 9 8 7 4 5 2 3 8 1 4 2 1 2 1 0 0 3 2 2 1 1 4 2 6 6 8 7 5 5 3 2 3 1 3 3 4 1 6 8 12 10 8 2 5 5 2 3 3 4 4 5 5 5 5 4 4 7 5
22 23 23 23 23 24 24 23 22 19 18 21 12 5 4 6 8 6 2 4 0 1 4 1 4 2 4 2 3 2 3 3 7 7 4 4 1 3 5 2 0 3 4 2 1 3 2 3 1 1 4 2 7 4 2 3 3 6 6 5 2 3 4 4 6 5 11 6 1 4 3 1 3 6 6 3 3 5 5 4 4 5 5 5 5 4 4
21 21 22 22 23 24 24 22 22 19 14 16 14 8 7 5 7 6 0 3 2 3 4 3 2 3 2 1 3 4 7 7 7 6 1 1 1 0 6 2 3 4 4 2 4 4 2 2 2 1 4 3 2 2 3 5 2 5 9 8 8 5 8 5 5 6 7 6 3 3 4 2 4 6 4 4 7 7 6 6 6 5 5 4 4 4 3
20 20 20 21 22 23 23 23 22 20 13 8 6 5 5 5 9 10 6 2 1 3 3 2 1 1 2 6 2 3 4 6 6 3 2 1 1 1 2 5 6 4 5 4 3 2 1 1 2 2 3 2 1 1 1 2 1 1 3 2 4 7 9 2 5 3 9 11 7 3 4 3 1 2 4 6 5 8 7 5 6 5 5 4 4 2 1
20 20 20 20 21 22 23 23 22 21 14 3 2 3 3 7 7 6 5 4 1 2 4 4 3 2 1 3 5 5 7 7 5 5 5 6 4 2 3 5 4 4 2 5 1 1 1 2 2 0 2 1 2 1 1 1 2 2 4 5 4 7 5 6 8 9 8 4 5 6 6 2 2 7 5 4 2 6 7 6 5 4 4 4 3 2 4
19 19 19 19 19 20 22 22 23 22 16 2 0 2 2 2 5 9 10 7 1 2 7 5 3 4 1 2 5 5 6 7 7 7 7 7 8 7 5 3 3 3 2 3 2 2 2 1 2 2 2 2 2 1 3 2 2 9 8 5 4 3 4 8 5 2 1 2 2 1 4 7 4 4 4 5 5 8 7 4 4 3 3 3 4 3 2
18 18 19 18 18 19 21 21 22 23 18 1 1 1 1 1 4 10 12 8 4 1 3 3 3 0 1 3 5 4 4 6 5 9 10 8 8 7 5 4 4 2 3 2 3 3 1 3 0 2 2 1 2 1 3 2 4 11 2 6 8 5 4 3 3 2 2 1 2 4 10 10 8 8 8 6 6 5 4 4 3 2 3 4 3 4 4
17 17 17 18 18 18 19 20 19 20 16 2 1 2 2 0 4 8 15 9 6 1 2 3 3 1 2 0 1 3 6 5 5 4 6 5 4 3 2 2 3 2 3 2 3 1 2 1 2 0 1 2 1 3 3 3 5 4 4 8 7 7 4 3 7 7 6 4 5 5 8 8 8 8 7 5 3 3 2 3 6 8 7 7 6 4 4
16 16 16 16 17 17 18 18 16 12 8 8 6 2 1 0 5 11 14 9 5 1 2 4 2 1 1 0 0 0 1 2 1 2 3 3 4 5 6 5 2 3 2 3 1 3 1 1 2 3 2 2 4 2 0 2 8 6 2 4 4 7 7 7 7 8 8 5 4 11 8 6 4 4 3 3 1 1 6 7 5 5 5 3 3 4 3
15 15 14 15 16 17 16 16 13 6 3 7 13 12 5 7 14 13 8 7 1 1 0 2 3 1 1 1 0 1 0 1 3 2 3 4 3 4 3 3 2 3 3 3 1 2 1 1 1 3 0 2 3 2 2 7 5 2 4 4 4 7 9 8 8 8 7 8 6 4 5 4 2 2 2 1 4 7 6 6 4 5 7 7 6 5 5
15 14 14 15 15 16 13 13 12 6 5 2 1 4 4 15 13 15 9 1 1 0 0 2 2 2 1 2 2 1 2 1 1 2 2 2 1 1 1 2 1 2 2 3 1 3 1 1 2 2 3 1 0 2 4 7 4 4 5 5 4 6 8 8 8 7 8 6 6 5 2 1 0 1 0 4 8 5 6 5 6 6 4 2 3 4 5
15 15 15 16 15 13 7 9 6 5 3 2 1 1 8 20 19 12 4 1 1 1 2 1 1 3 2 0 1 1 0 1 1 2 2 1 2 1 1 2 1 2 2 2 3 1 2 3 2 4 4 2 3 4 6 2 3 6 5 6 7 1 4 5 5 5 4 4 3 3 4 4 3 3 4 5 6 6 8 6 5 4 3 3 4 4 4
13 15 16 17 15 9 1 2 4 4 3 2 4 11 22 21 14 6 1 1 1 1 1 0 1 1 2 4 2 1 1 2 1 2 1 1 2 0 1 0 1 0 1 2 2 2 2 2 4 2 2 4 7 5 2 2 4 5 6 6 6 6 5 4 3 4 4 4 3 4 7 7 6 4 3 3 6 6 6 6 5 4 3 4 4 4 4
12 13 16 13 6 1 2 2 1 2 1 6 12 19 22 15 4 1 1 1 1 1 2 0 3 2 1 1 1 2 2 1 1 2 1 1 2 1 2 1 2 2 3 1 0 2 2 3 3 2 4 7 3 4 4 5 4 4 5 4 5 5 4 3 4 4 4 2 5 7 5 4 4 4 5 4 5 4 5 5 6 5 6 6 5 4 5
11 10 4 3 2 2 1 1 0 6 13 15 11 4 3 4 2 2 4 3 3 2 2 4 3 0 0 1 1 3 2 1 2 2 1 1 1 2 0 1 3 3 1 2 3 3 2 1 2 4 4 1 6 6 5 5 5 5 5 5 4 4 3 3 4 2 2 1 1 5 4 3 3 3 3 3 5 5 4 4 3 3 4 5 5 5 7
7 3 1 1 0 1 1 3 6 15 9 2 1 0 1 1 2 2 2 1 1 3 2 3 1 1 1 3 1 3 2 1 1 0 1 2 2 1 2 1 2 4 3 1 3 4 0 2 1 1 7 3 3 2 3 3 4 4 4 4 2 3 3 3 5 7 4 2 1 0 1 1 4 5 2 3 4 4 4 4 4 4 4 5 6 6 7
3 2 1 2 1 1 2 5 11 6 2 1 2 2 1 2 2 1 2 1 1 1 2 2 1 1 0 2 3 1 2 1 2 1 2 1 0 2 1 2 3 3 1 2 2 4 2 1 2 2 6 3 4 0 1 2 2 2 3 2 3 3 3 3 3 3 4 2 2 1 2 2 2 3 4 4 4 5 5 4 4 5 6 6 7 7 7
0 0 1 1 1 2 3 5 4 2 2 2 2 2 1 2 2 1 1 1 1 0 0 1 1 1 2 2 2 2 1 2 0 1 1 1 1 4 2 1 1 4 1 1 2 4 0 1 1 3 4 1 2 0 0 1 1 1 2 2 2 2 2 2 3 2 2 1 1 0 1 1 2 2 3 3 4 5 5 5 6 6 7 7 8 8 7
1 0 0 0 0 1 3 1 3 1 1 0 1 1 0 2 1 0 0 0 0 1 1 1 1 1 1 1 0 0 1 0 0 0 1 1 1 2 1 0 2 2 1 1 2 0 1 1 3 3 1 1 1 1 1 1 1 0 1 0 1 1 1 1 1 2 2 1 1 2 2 2 3 3 3 4 4 5 5 5 7 6 7 8 7 8 8
1 1 0 1 0 2 1 2 2 1 1 2 2 1 1 1 0 1 0 1 0 0 1 0 0 1 0 1 1 1 1 1 1 1 2 1 1 1 1 0 1 0 2 1 1 1 3 4 4 4 1 4 4 4 3 2 0 1 2 1 1 1 0 1 2 2 2 1 3 3 3 3 4 5 4 4 5 7 6 6 7 7 6 7 8 8 9
2 1 1 1 1 1 0 1 1 2 1 1 1 1 0 1 2 1 0 0 0 1 2 2 1 0 1 3 1 1 1 1 2 1 1 0 2 0 1 0 2 2 3 1 1 3 4 3 3 3 6 3 3 3 3 3 3 2 3 3 2 1 1 2 2 1 2 2 1 3 3 4 6 5 4 4 5 7 7 6 6 6 6 5 7 7 7
0 2 2 1 1 2 1 1 1 1 1 1 1 0 1 1 1 1 1 0 1 1 0 1 1 3 2 2 1 1 2 1 2 3 1 2 1 0 2 2 0 1 2 1 1 2 1 3 0 0 4 4 5 6 5 5 5 6 3 1 3 4 4 3 3 3 4 3 4 3 4 4 4 5 5 5 5 4 4 7 6 5 5 5 6 6 6
2 0 1 2 3 2 1 0 1 0 1 0 1 1 1 0 0 0 0 1 0 1 1 0 0 1 2 1 2 1 2 1 1 0 0 0 2 1 1 1 2 1 0 1 2 6 4 2 6 5 5 6 5 5 5 6 5 4 5 6 5 5 4 4 4 4 5 4 4 3 4 3 4 5 6 5 5 5 5 6 5 6 6 6 6 6 5
1 1 1 1 1 1 1 1 2 1 0 0 1 1 1 1 0 0 0 0 0 1 1 1 0 1 3 0 1 1 0 1 1 1 2 1 1 1 2 2 1 2 3 3 4 3 1 1 2 3 5 5 4 5 5 5 5 6 8 6 5 4 3 3 4 4 5 3 3 4 4 4 4 5 5 7 7 5 6 6 5 5 5 7 7 6 6
0 0 0 0 3 1 1 2 0 1 0 0 1 1 0 1 0 1 1 0 1 1 1 1 3 1 3 2 1 1 0 0 1 1 1 1 1 1 0 0 2 1 2 3 5 2 1 2 5 4 5 5 5 5 5 6 7 9 8 6 7 4 4 4 4 5 4 4 4 5 5 5 5 5 5 7 9 8 5 5 5 4 4 5 5 5 5
2 1 1 1 0 1 0 0 1 2 1 1 0 0 0 1 1 1 1 1 0 1 0 1 0 1 1 1 1 1 0 1 1 1 1 1 1 1 2 2 1 2 4 4 3 0 3 4 3 3 3 2 4 5 6 4 5 5 6 6 7 6 6 5 7 7 6 4 4 5 6 5 4 5 5 5 6 8 5 4 6 5 5 5 5 5 6
1 1 1 2 1 2 0 0 1 3 1 1 1 1 2 2 1 1 3 2 0 0 1 1 1 4 0 1 1 1 1 1 0 0 1 1 2 1 0 2 4 4 2 1 2 2 3 4 4 2 6 6 7 6 6 7 5 5 5 5 5 4 6 7 7 7 7 7 6 7 9 8 6 6 6 7 7 6 8 8 7 6 6 5 4 5 6
0 0 2 2 4 3 5 2 4 3 2 5 4 5 6 5 5 4 3 3 3 1 1 1 0 2 1 2 1 0 2 1 2 1 3 3 2 3 3 4 6 5 3 1 3 7 7 5 6 5 6 8 9 10 8 9 9 10 9 8 8 7 7 6 7 8 9 9 9 8 9 9 8 6 6 5 5 7 8 8 6 6 6 5 6 8 8
1 0 2 1 2 0 2 1 1 3 2 1 4 3 6 4 3 3 4 5 4 4 4 2 3 1 1 3 3 2 1 1 1 0 1 4 2 3 5 7 4 3 7 5 4 4 5 5 6 6 5 6 6 9 10 9 7 7 7 8 8 7 8 7 7 8 8 9 9 9 11 9 9 8 7 5 6 5 6 7 3 4 4 4 5 7 9
Wind_Direction
1 0 356 346 82 121 153 145 144 144 137 142 147 124 137 164 184 100 134 146 148 159 190 172 192 193 191 101 103 147 179 196 192 212 202 216 252 228 168 167 154 236 152 165 176 184 184 183 191 169 181 185 172 159 161 156 164 158 172 161 193 68 123 121 151 88 17 20 350 44 19 169 185 214 213 180 194 194 199 152 15 158 183 199 233 233 272
2 7 20 9 107 134 159 140 132 137 142 140 136 145 149 143 129 148 146 151 154 163 186 176 188 193 112 185 171 170 207 194 188 226 214 200 229 226 187 149 180 161 150 149 177 174 173 204 180 183 162 164 352 177 167 160 170 173 178 176 168 145 208 154 151 136 141 86 69 15 341 353 207 196 198 199 186 197 221 89 134 107 221 195 184 230 247
3 11 32 49 136 146 148 134 138 141 139 140 144 139 131 112 59 31 155 159 165 184 185 180 176 183 176 179 179 174 218 263 221 197 225 216 213 179 221 165 142 150 144 161 155 178 196 163 218 108 134 111 298 169 167 171 172 188 166 158 150 128 164 163 176 169 170 166 174 175 187 206 195 166 168 194 192 184 172 213 186 219 197 204 201 231 247
5 10 25 59 118 143 137 137 139 132 135 145 130 126 128 164 159 334 44 142 180 259 7 196 183 169 164 182 188 175 199 218 329 225 212 281 216 240 146 114 143 141 149 156 156 123 316 214 150 167 146 109 325 235 169 180 170 167 148 152 151 177 128 225 195 192 197 187 158 123 102 91 161 178 192 196 206 198 186 161 201 213 210 215 208 229 266
9 11 16 90 129 161 150 153 149 140 150 142 113 113 136 123 165 161 136 72 191 184 178 179 187 189 164 182 163 190 194 161 308 267 212 205 230 186 163 161 148 174 135 131 103 106 88 103 103 125 112 45 136 3 132 123 130 145 132 137 103 90 181 200 201 211 200 172 168 143 148 175 190 189 199 200 197 201 189 188 211 199 208 242 215 218 227
11 9 16 26 156 165 164 158 153 153 160 128 113 98 166 180 164 113 228 182 166 165 200 189 187 181 178 189 162 186 183 175 199 185 280 162 185 152 316 175 169 160 164 146 151 157 110 148 139 112 46 96 82 57 37 89 94 101 22 137 153 151 191 201 195 210 210 117 155 153 157 175 182 195 195 197 200 196 206 211 219 191 202 224 217 198 219
13 12 16 25 154 167 165 165 155 150 122 84 242 168 343 45 116 103 132 188 180 184 167 174 179 183 185 194 181 183 182 191 194 218 183 167 176 182 168 180 170 159 142 138 128 146 136 181 152 145 158 149 142 112 74 72 102 85 102 121 270 87 225 203 187 195 199 117 132 130 157 166 180 190 198 198 194 204 208 216 217 214 222 221 234 221 227
13 15 14 25 43 133 177 161 138 125 81 102 53 38 128 158 151 150 207 312 175 183 155 171 168 178 183 192 190 182 185 188 177 223 210 159 188 179 183 174 171 162 163 154 161 185 180 166 161 164 144 153 153 148 140 139 141 154 165 142 310 143 225 156 124 106 276 116 77 317 107 102 148 176 174 176 182 204 214 227 231 223 235 231 234 241 253
14 16 15 18 31 46 70 168 140 102 88 94 28 16 4 85 354 133 140 145 170 164 165 170 176 177 184 196 181 187 182 185 173 176 186 199 178 184 186 168 165 171 171 179 189 182 158 150 163 166 158 165 178 140 175 136 141 143 124 160 185 142 223 129 156 160 206 217 179 202 176 152 172 211 172 227 182 179 196 204 207 200 208 213 221 236 245
16 16 16 14 25 38 41 42 41 22 355 38 278 84 212 10 328 57 132 149 170 165 170 176 165 196 184 183 178 183 185 173 159 161 299 329 256 207 178 166 154 168 175 193 185 161 154 154 128 157 89 72 89 98 147 149 148 153 157 150 144 164 154 131 158 161 223 182 171 184 173 133 225 216 208 201 215 218 214 217 199 201 191 199 200 221 224
15 17 18 17 18 31 38 35 33 26 0 191 154 125 265 176 148 126 180 143 169 181 168 179 188 177 161 179 177 181 169 169 174 171 176 192 155 181 159 160 164 162 180 162 112 109 104 101 102 80 93 108 111 117 142 155 164 167 164 152 183 171 167 174 169 170 193 191 156 151 134 212 218 196 202 200 208 208 214 218 219 219 199 217 214 232 248
15 16 18 19 17 21 31 34 33 25 10 303 303 75 49 315 81 40 149 168 172 173 182 187 187 161 176 167 167 171 173 172 185 185 143 165 148 136 148 154 144 157 146 161 102 96 89 74 66 61 55 69 99 114 134 154 204 55 161 157 157 171 166 179 157 127 177 128 110 132 209 221 223 225 201 209 217 214 218 227 227 230 231 240 251 253 241
14 16 16 17 18 17 20 29 29 30 18 335 62 124 319 318 294 128 169 180 167 173 180 184 173 180 158 156 152 159 153 142 103 100 92 131 140 133 160 160 161 132 163 126 107 99 97 94 60 74 69 63 42 78 111 161 122 35 128 136 140 157 155 167 142 138 103 88 163 175 230 226 237 245 216 209 211 217 223 245 252 248 236 222 234 236 237
11 13 15 15 16 17 13 17 26 23 27 26 93 110 83 291 158 101 198 162 148 168 141 127 151 148 157 145 126 115 104 103 101 100 101 41 93 53 12 39 137 145 173 115 104 106 89 91 106 83 5 43 39 93 325 35 17 15 73 82 142 160 147 135 187 156 171 167 193 212 335 329 290 267 230 202 200 171 183 226 238 231 228 230 239 240 241
10 11 12 14 16 15 15 10 15 24 24 39 94 88 61 24 2 105 224 246 138 104 159 168 158 151 141 138 132 121 115 128 108 53 34 35 61 275 250 111 123 149 160 107 95 67 114 119 119 137 136 141 168 192 40 199 15 13 349 329 100 157 162 189 138 224 148 148 181 146 165 242 247 232 93 144 188 179 156 160 289 221 218 214 222 233 252
10 11 10 11 13 16 15 11 9 17 19 8 66 83 69 24 289 218 181 226 133 137 0 333 316 139 132 144 151 140 146 134 123 116 70 12 34 64 28 41 358 346 91 80 87 103 140 143 158 157 175 178 158 97 232 147 64 320 338 355 57 37 95 133 167 194 131 177 187 201 200 239 149 110 181 176 146 135 116 136 256 243 232 231 222 238 236
9 10 10 9 9 11 15 14 9 11 21 22 33 30 54 1 4 293 110 39 50 96 350 337 308 128 110 82 65 103 140 141 145 136 136 128 155 125 93 356 1 42 118 106 128 117 130 133 149 130 22 127 146 187 98 111 147 24 5 41 63 100 125 121 144 212 183 160 174 223 203 258 211 126 71 131 139 112 96 74 262 259 161 196 209 221 228
8 9 10 9 8 8 11 13 12 9 17 32 50 64 2 329 324 258 65 116 117 64 44 3 331 151 143 145 135 79 94 102 72 61 87 92 113 140 161 88 103 335 32 118 152 133 156 168 169 178 171 211 116 104 182 168 172 178 167 164 145 141 187 169 190 170 204 180 229 293 277 243 152 137 130 105 116 113 127 211 228 171 81 26 95 194 231
7 8 10 10 8 8 8 10 14 12 10 18 143 96 23 344 335 319 120 78 93 127 341 356 350 14 352 289 67 134 162 129 126 119 128 127 190 154 118 257 112 141 273 138 136 160 168 190 155 155 126 213 157 184 128 137 184 106 125 129 143 177 160 178 152 190 196 197 163 235 273 234 140 148 139 138 88 179 216 223 138 116 98 54 84 101 47
7 8 10 10 10 8 8 9 10 12 13 14 25 95 215 343 349 345 83 105 47 99 54 25 1 19 345 5 128 124 117 81 138 131 159 145 151 128 96 123 272 105 146 134 174 199 172 192 182 168 141 163 207 134 67 287 109 160 169 185 160 173 150 192 190 174 65 128 196 47 257 248 158 150 125 158 155 228 184 127 14 91 132 112 68 95 98
6 6 9 11 11 10 9 10 10 9 11 9 14 110 30 2 3 13 14 118 124 105 37 3 24 27 27 50 34 7 74 137 149 147 150 105 163 158 172 188 158 154 174 175 179 185 175 175 173 178 174 137 211 81 187 123 339 294 122 172 178 165 151 198 207 165 164 165 183 210 217 85 153 136 171 205 199 165 134 114 123 59 127 132 125 100 144
7 5 7 10 11 11 10 10 11 11 10 10 8 48 62 341 355 17 50 59 65 61 90 184 24 84 79 62 36 35 54 57 25 335 124 131 214 197 309 116 155 162 171 132 126 120 77 174 78 104 142 145 69 186 151 113 196 244 344 109 184 196 204 129 168 162 166 201 214 220 123 120 120 94 154 188 170 97 158 111 139 146 206 176 124 156 162
7 5 5 7 9 10 9 9 9 11 13 12 19 58 59 347 352 327 54 77 76 87 89 41 240 99 52 47 34 32 59 98 15 53 359 159 175 324 165 145 179 96 321 46 178 137 163 135 181 145 89 173 162 165 180 177 166 161 184 230 248 226 197 105 133 232 239 283 252 250 315 161 137 122 132 130 106 92 107 132 138 197 166 173 154 161 151
7 6 4 4 6 8 7 7 8 8 12 15 20 33 32 20 354 338 61 79 93 117 73 19 45 16 359 343 346 354 15 13 12 301 234 275 170 205 338 320 103 44 14 24 179 132 177 85 193 111 182 206 118 167 181 208 214 166 153 239 226 278 178 138 185 168 132 243 240 249 247 168 129 118 69 74 108 176 171 161 161 158 142 114 107 140 153
7 6 4 4 4 5 5 5 6 8 11 14 17 40 60 23 0 348 43 107 188 126 115 62 46 332 288 252 287 317 353 319 293 274 256 215 282 163 172 180 69 155 174 183 323 57 42 106 25 71 171 262 131 227 165 150 261 146 186 210 114 274 179 191 214 190 187 241 132 213 256 247 195 173 146 148 100 73 50 75 102 115 125 141 164 146 139
6 6 5 4 3 2 2 1 3 6 8 15 23 39 49 27 337 357 82 10 73 95 110 97 3 323 313 34 20 313 299 304 301 296 211 268 268 318 132 139 57 39 83 45 41 98 111 81 128 151 153 274 122 170 175 199 172 181 187 214 182 172 134 218 177 200 250 280 269 68 31 338 43 52 68 116 131 112 96 104 110 117 118 140 157 148 150
3 5 5 6 3 0 358 358 359 0 5 10 11 32 57 52 34 43 42 295 65 51 40 94 106 318 45 75 327 319 319 318 322 337 13 10 108 114 83 99 97 48 65 47 35 83 46 83 95 182 160 221 80 119 79 14 41 175 225 256 114 114 189 179 91 205 236 223 230 134 251 253 93 33 112 107 126 124 125 107 85 92 100 90 68 16 39
360 1 5 7 4 360 358 356 355 356 356 335 326 345 16 56 44 51 49 27 64 117 132 121 138 181 146 57 5 339 346 349 359 27 37 27 26 59 92 109 100 93 82 92 37 47 95 124 200 64 54 337 77 313 63 64 50 332 243 227 175 172 181 151 188 203 234 236 230 200 212 53 101 139 132 105 115 99 89 87 91 77 76 76 66 26 357
356 358 1 5 4 2 359 356 353 352 350 321 230 289 319 65 49 30 25 22 8 69 92 92 92 67 72 311 345 352 346 1 28 45 55 41 43 41 64 77 91 110 84 63 78 106 133 170 62 131 152 235 84 219 66 236 209 234 227 152 194 231 152 186 214 209 217 73 76 100 146 147 146 104 74 59 59 90 90 86 74 58 38 27 49 21 5
354 355 357 1 3 1 1 357 356 353 347 325 177 240 254 316 18 24 2 18 25 278 102 127 105 238 26 9 351 343 340 352 20 49 49 49 46 40 28 61 57 34 97 130 144 140 151 106 106 18 330 340 127 107 133 217 231 251 195 155 203 215 230 230 81 182 204 31 80 82 99 100 95 100 86 72 57 66 76 68 57 35 358 41 27 352 355
352 352 354 357 357 359 358 358 358 358 355 349 16 34 3 33 326 4 346 354 358 23 62 66 101 139 65 158 133 350 339 343 14 32 37 39 56 35 332 45 50 16 91 47 60 104 90 128 117 118 55 335 81 142 199 175 240 273 207 172 192 186 180 93 62 50 78 83 90 83 86 96 109 89 68 66 51 74 71 61 35 43 33 38 23 8 345
351 351 352 353 354 355 356 355 358 5 12 38 61 86 149 258 284 322 332 333 327 31 80 103 71 44 119 69 305 191 318 310 327 22 40 355 27 8 33 46 83 2 58 96 111 68 59 39 90 141 117 163 96 117 96 184 231 261 61 113 68 77 84 92 74 54 49 12 106 84 81 76 38 90 128 121 160 118 93 82 57 42 32 14 330 336 316
348 350 350 350 350 352 351 354 355 15 31 99 112 112 87 358 335 332 335 326 22 48 327 72 97 138 59 236 55 327 189 350 23 30 28 9 14 352 32 22 25 48 357 69 24 123 33 71 148 100 266 69 114 174 199 225 225 96 84 85 79 88 88 82 79 65 47 23 15 133 156 134 111 112 151 181 83 82 80 67 39 25 14 9 346 343 359
343 341 343 343 344 345 355 357 4 9 20 357 357 331 347 338 338 337 345 346 105 256 52 93 96 83 125 39 54 313 55 37 26 9 57 13 292 4 91 52 305 75 343 98 111 62 267 82 95 121 59 338 163 68 247 245 139 109 100 73 63 91 89 74 52 48 35 22 16 39 57 83 218 313 356 85 84 71 72 59 35 25 1 353 350 5 342
337 338 335 336 336 337 3 21 4 21 3 352 316 305 327 326 328 334 23 38 53 3 46 0 101 93 70 24 86 294 107 26 45 342 93 326 39 62 46 91 41 113 279 78 32 172 130 208 156 88 203 116 77 229 242 70 134 168 139 89 13 20 110 80 59 41 12 356 6 9 12 351 40 54 70 74 73 45 36 25 8 27 16 4 344 327 352
335 333 332 328 326 330 331 36 28 4 28 355 280 300 311 311 315 320 18 292 110 101 87 228 70 108 136 148 165 268 81 23 44 32 346 112 19 60 79 155 59 287 45 76 199 116 163 220 94 230 165 139 221 198 297 48 115 59 59 67 32 44 54 53 19 339 317 284 297 36 45 35 54 44 33 45 68 42 33 9 2 25 9 328 323 339 347
328 329 328 321 315 35 60 67 20 78 255 268 285 298 297 297 278 305 323 354 348 101 105 81 66 346 62 126 64 284 89 84 153 52 77 81 143 23 19 61 155 137 44 320 238 134 221 41 121 206 189 209 222 52 51 16 44 87 92 66 45 33 40 26 339 291 287 226 123 65 34 51 59 42 34 18 23 18 14 2 360 350 331 328 322 327 322
325 323 342 344 351 16 354 30 329 291 305 300 309 312 356 25 17 8 8 19 306 21 2 65 81 28 123 67 118 279 70 276 64 134 15 263 69 307 184 111 223 110 253 189 226 164 81 69 206 191 258 70 61 67 36 38 48 51 63 69 50 47 29 9 338 2 44 34 341 6 13 36 50 26 18 338 345 339 338 327 334 327 314 311 316 319 314
322 305 352 325 5 9 305 279 324 318 309 252 6 11 8 348 27 20 350 327 359 21 340 74 93 43 0 78 339 348 131 161 73 316 112 276 96 294 96 88 280 84 278 55 293 109 332 183 242 173 252 186 157 90 17 69 72 66 67 61 57 44 43 28 32 54 81 114 123 54 64 315 311 307 325 308 301 302 310 324 318 319 317 308 306 305 298
356 14 355 341 15 291 305 300 325 322 311 19 357 73 52 331 62 347 336 33 22 352 358 39 58 38 308 136 133 6 318 78 143 139 139 330 334 148 251 72 268 89 250 136 238 66 129 209 221 149 275 181 164 349 359 45 72 53 61 44 51 44 45 45 39 40 58 30 50 298 333 334 323 294 301 297 299 296 296 301 303 305 306 297 296 297 294
46 289 318 358 323 330 301 303 308 34 38 23 22 13 45 7 33 176 341 25 76 301 46 301 348 22 15 358 15 140 318 68 298 127 82 127 265 75 43 159 263 81 255 160 285 80 90 51 283 198 245 183 199 179 2 1 49 14 42 18 35 22 38 21 40 12 31 5 348 335 312 315 320 300 283 286 286 282 286 290 294 292 293 293 295 291 295
319 322 227 306 258 295 318 8 35 4 18 96 109 333 285 240 276 269 113 104 168 30 323 355 354 27 302 15 257 54 301 198 29 316 87 57 321 111 207 23 1 122 208 226 64 75 101 175 243 252 244 221 205 206 248 252 252 264 324 35 3 8 2 3 337 353 358 334 307 311 298 299 284 282 275 275 272 273 278 282 278 278 276 280 284 288 286
49 349 342 344 325 0 351 24 333 72 72 358 33 10 358 34 9 108 311 74 17 102 225 29 210 96 329 56 342 120 186 318 13 345 78 162 65 48 105 22 111 6 236 46 76 162 177 211 235 243 171 189 190 195 209 207 223 270 277 323 281 286 321 299 288 277 292 280 270 269 272 273 267 260 262 264 269 270 266 263 269 275 277 274 275 282 286
262 330 23 341 40 305 38 1 296 48 21 48 88 202 284 11 303 50 14 147 116 11 5 80 53 90 313 347 82 5 12 347 173 53 27 13 79 206 85 197 202 231 61 18 157 190 218 221 195 188 191 171 168 195 212 219 220 243 281 261 225 229 250 255 260 262 272 264 268 264 266 269 269 270 261 254 248 261 273 272 267 267 272 279 280 281 283
338 350 27 12 21 278 48 312 339 110 207 250 172 224 150 171 230 205 190 253 26 195 39 51 3 58 61 296 38 326 44 256 359 95 241 105 46 257 124 241 49 36 114 212 225 247 272 253 168 161 192 206 208 207 200 198 189 194 205 213 226 225 217 211 234 228 246 234 242 242 251 253 261 265 265 264 261 250 257 275 280 285 280 276 280 285 284
68 142 42 56 322 318 86 215 355 61 296 146 203 189 186 242 82 191 222 299 155 176 136 96 326 100 71 276 121 209 339 340 36 326 12 53 113 260 218 41 60 72 266 219 220 224 215 216 194 209 181 189 195 198 187 197 183 177 174 219 225 189 207 219 228 231 239 241 248 238 255 258 264 278 282 275 274 277 267 261 267 272 282 290 287 289 291
82 19 74 112 113 274 57 169 239 207 196 174 90 24 98 158 170 177 114 266 71 100 120 256 28 81 123 258 49 346 42 357 106 280 67 51 189 250 47 91 225 194 167 235 232 242 249 215 160 180 178 198 207 205 198 208 200 200 217 227 220 233 234 227 245 247 248 244 260 270 269 272 274 277 288 300 292 272 268 270 271 269 270 275 286 295 296
119 253 90 143 251 164 160 260 51 344 286 67 81 12 326 314 311 249 223 224 300 295 173 115 89 51 30 297 88 140 278 249 56 305 138 245 20 34 277 200 239 243 192 184 231 221 193 179 181 204 212 197 192 205 228 225 225 213 224 230 240 244 249 244 254 260 263 265 264 266 270 273 273 276 278 278 288 291 282 275 275 275 272 274 279 282 283
124 123 162 214 187 207 224 50 36 284 178 55 116 187 184 135 212 138 163 201 178 119 214 108 232 67 76 282 47 20 5 276 111 242 64 15 124 208 162 238 197 252 242 185 223 187 192 179 178 174 190 198 229 216 238 226 222 222 223 226 237 238 243 246 249 260 277 274 266 269 272 271 272 278 278 285 288 291 295 293 296 292 279 272 278 284 290
80 322 37 80 355 276 129 280 73 292 162 86 210 254 204 245 250 202 171 117 139 105 240 155 57 91 191 79 19 17 264 288 152 270 106 205 195 235 122 258 225 203 249 226 169 190 177 159 141 167 224 222 232 223 233 245 230 230 234 231 244 252 248 251 271 276 269 266 268 267 270 284 284 277 280 281 283 296 310 309 304 298 297 292 290 291 287
18 123 245 184 191 225 133 205 201 221 215 222 191 211 179 208 186 210 204 145 146 93 53 104 155 105 70 33 58 347 259 124 71 196 183 198 184 170 198 218 236 203 201 220 172 168 178 180 183 199 210 218 226 222 217 215 211 218 222 225 236 238 255 258 259 271 276 273 269 274 274 266 260 260 263 279 300 307 304 298 287 275 286 304 295 282 274
115 248 254 303 39 234 221 19 0 231 230 178 169 189 150 211 192 174 168 133 148 135 175 156 96 90 92 191 214 186 21 46 200 200 247 262 175 172 214 215 216 188 165 176 217 210 197 197 193 198 204 210 219 213 208 206 206 219 222 227 227 232 248 255 252 253 262 275 270 259 262 267 273 273 271 277 286 296 292 288 295 302 295 289 283 277 268